Location: Altena
(53.1325°N, 6.4770°E)
Time: 22:37:20
(UTC+00:00)

Daily predictions for brighter satellites

Satellite Brightness Start Highest point End
(mag) Time Altitude Azimuth Time Altitude Azimuth Time Altitude Azimuth
Sich 1 Rocket 3.8 17:09:40 10° N 17:14:09 52° ENE 17:18:35 10° SSE
ATLAS 2AS CENTAUR R/B 3.5 17:09:52 10° W 17:16:27 44° NNW 17:22:57 10° NE
GP-B 3.0 17:13:23 10° S 17:17:44 76° E 17:22:07 10° N
SKYMED 2 4.2 17:13:55 10° NNE 17:17:59 36° E 17:22:00 10° SSE
Cosmos 2123 Rocket 4.1 17:12:51 10° S 17:19:11 90° N 17:25:32 10° N
Resurs 1-3 3.7 17:17:12 10° SE 17:21:22 51° ENE 17:25:33 10° N
ATLAS CENTAUR R/B 3.0 17:21:21 10° N 17:21:37 10° N 17:21:54 10° NNE
IRS-1C 4.4 17:18:19 10° SSE 17:23:38 77° WSW 17:29:00 10° NNW
Lacrosse 5 rocket 1.1 17:20:34 10° WSW 17:24:03 66° NNW 17:27:38 10° ENE
Resurs 01 Rocket 2.4 17:25:06 10° SE 17:28:58 31° ENE 17:32:52 10° N
Cosmos 1782 4.0 17:28:21 10° NNE 17:30:52 18° ENE 17:33:21 10° ESE
CZ-4 R/B 4.3 17:29:57 10° SSE 17:33:55 88° E 17:37:56 10° NNW
Cosmos 1674 Rocket 3.5 17:30:36 10° S 17:35:00 80° E 17:39:26 10° NNE
SPOT 1/Viking Rocket 3.7 17:30:01 10° SSE 17:35:08 82° WSW 17:40:18 10° NNW
Geosat FO 4.2 17:32:42 10° NNE 17:35:51 89° W 17:38:52 10° SSW
USA 267 3.4 17:31:00 10° ENE 17:37:34 71° SSE 17:44:05 10° SW
CARTOSAT-1 3.8 17:35:25 10° SE 17:39:25 45° ENE 17:43:27 10° N
Cosmos 2082 Rocket 4.4 17:38:44 10° WNW 17:42:11 16° NNW 17:45:38 10° NNE
ARIANE 6 FM1 Upper Stage 3.1 17:38:26 10° NW 17:42:13 40° NNE 17:45:29 13° E
Radarsat Rocket 4.0 17:36:49 10° SSE 17:42:43 71° ENE 17:49:12 10° NNW
Meteor 1-11 4.4 17:38:50 10° SSW 17:44:30 85° WNW 17:50:19 10° NNE
Cosmos 2292 Rocket 4.4 17:41:46 10° SW 17:44:34 36° WNW 17:47:42 10° N
SL-19 R/B 4.5 17:39:06 10° SE 17:45:04 60° ENE 17:50:46 10° NNW
Cosmos 2297 Rocket 2.4 17:42:09 10° S 17:47:37 52° ESE 17:53:06 10° NE
RESURS DK-1 4.1 17:45:27 10° N 17:47:52 15° NNE 17:49:28 13° ENE
Cosmos 1943 4.4 17:43:40 10° NNW 17:48:18 25° NE 17:51:55 14° E
Cosmos 1447 Rocket 4.5 17:43:11 10° S 17:49:13 64° E 17:55:18 10° NNE
SPOT 5 4.0 17:52:21 10° ESE 17:56:25 26° ENE 18:00:39 10° N
SeaSat 1 3.4 17:53:27 10° SSE 17:58:12 50° WSW 18:02:59 10° NW
Cosmos 1867 4.2 17:53:35 10° WSW 17:58:54 53° NW 18:04:17 10° NE
SJ-6B 3.1 17:56:07 10° SE 17:59:16 34° ENE 18:02:27 10° N
IRAS Rocket 4.4 17:54:25 10° SE 17:59:51 53° ENE 18:05:19 10° N
Cosmos 2228 3.1 17:59:02 10° N 18:03:06 48° ENE 18:07:11 10° SSE
COSMO-SKYMED 1 2.4 17:59:52 10° NNE 18:03:57 58° E 18:08:00 10° S
PSLV R/B 3.3 18:00:02 10° SSE 18:04:08 79° ENE 18:08:14 10° NNW
Cosmos 1544 Rocket 4.3 18:01:55 10° N 18:05:46 30° ENE 18:08:59 13° SE
NOSS 3-3 (C) 3.8 18:01:09 10° SW 18:06:31 86° SE 18:13:05 10° NE
Meteor 1-31 Rocket 3.6 18:06:27 22° ENE 18:06:53 23° ENE 18:09:41 10° N
Cosmos 1570 Rocket 4.0 18:03:09 10° S 18:08:20 60° ESE 18:13:31 10° NNE
CZ-2D R/B 3.7 18:05:05 10° S 18:09:00 69° WSW 18:13:03 10° NNW
YAOGAN 3 4.4 18:05:16 10° SSE 18:09:28 73° ENE 18:13:41 10° N
Cosmos 2344 4.3 18:03:54 10° S 18:10:19 29° ESE 18:14:28 17° ENE
Cosmos 1513 Rocket 4.5 18:04:16 10° N 18:10:36 82° E 18:16:58 10° SSE
Cosmos 1455 Rocket 3.0 18:06:32 10° NNW 18:10:52 86° WSW 18:15:10 10° S
YAOGAN 1 3.2 18:09:02 10° S 18:13:12 57° W 18:17:26 10° NNW
Cosmos 2263 Rocket 3.2 18:09:58 10° SSE 18:14:31 25° ESE 18:16:42 20° ENE
Cosmos 2034 Rocket 4.2 18:08:38 10° N 18:14:35 46° ENE 18:20:31 10° SE
Cosmos 1607 4.3 18:08:37 10° WSW 18:14:44 65° NW 18:20:57 10° NE
Cosmos 1072 Rocket 4.4 18:09:21 10° N 18:15:38 70° ENE 18:21:46 10° SSE
Cosmos 1975 Rocket 3.3 18:11:32 10° SSE 18:15:39 44° E 18:19:47 10° NNE
Cosmos 2237 Rocket 3.1 18:14:09 10° NW 18:19:38 51° WSW 18:25:06 10° S
DNEPR-1 R/B 4.2 18:19:25 10° NW 18:24:10 73° SW 18:29:53 10° SE
Cosmos 773 Rocket 4.0 18:19:34 10° S 18:24:46 63° ESE 18:30:01 10° NNE
NOAA 6 4.3 18:20:52 10° S 18:26:01 73° WSW 18:31:13 10° NNW
Cosmos 972 Rocket 4.5 18:25:07 10° N 18:29:45 37° ENE 18:31:38 28° E
Cosmos 2208 Rocket 4.0 18:25:31 10° SSW 18:30:43 66° ESE 18:36:01 10° NNE
Terra 3.1 18:31:24 22° NE 18:31:24 22° NE 18:34:41 10° N
CRYOSAT 2 4.3 18:27:50 10° N 18:32:46 85° E 18:37:39 10° S
NOSS 3-3 (A) 4.1 18:27:35 10° WSW 18:32:59 67° NW 18:38:43 14° NE
Meteor 2-17 Rocket 4.3 18:31:05 10° S 18:37:09 79° E 18:43:12 10° NNE
Cosmos 1346 Rocket 2.6 18:36:07 10° S 18:39:38 51° E 18:40:09 46° ENE
Cosmos 44 Rocket 3.3 18:34:49 10° SSW 18:39:44 68° SE 18:42:35 26° NE
TSX-5 4.2 18:34:43 10° NNW 18:40:07 71° NE 18:42:14 32° SE
Cosmos 1464 Rocket 4.0 18:35:19 10° N 18:41:43 87° W 18:48:02 10° S
Cosmos 1602 2.8 18:40:29 10° SSW 18:43:15 82° W 18:43:15 82° W
CZ-4C R/B 2.7 18:39:40 10° WSW 18:44:13 50° NNW 18:48:40 17° NE
SL-16 R/B 2.1 18:40:45 10° NNW 18:46:27 88° ENE 18:50:49 18° SSE
Cosmos 2227 Rocket 2.1 18:41:26 10° SSW 18:46:59 63° ESE 18:51:30 16° NE
ATLAS CENTAUR R/B 2.7 18:53:47 10° NNW 18:54:54 18° N 18:54:54 18° N
Lacrosse 5 rocket 1.6 18:57:47 10° WNW 19:01:13 43° N 19:01:16 43° N
CZ-4 R/B 1.7 19:02:50 47° NNE 19:02:50 47° NNE 19:05:44 10° N
Resurs 01 Rocket 3.0 19:01:09 10° SSW 19:05:16 38° W 19:09:25 10° NNW
Cosmos 1782 3.5 19:02:22 10° NNW 19:05:51 47° W 19:09:17 10° S
ATLAS 2AS CENTAUR R/B 3.7 19:02:41 10° WNW 19:08:53 35° N 19:11:46 25° NE
CZ-4B R/B 3.2 19:11:59 53° E 19:12:26 55° ENE 19:17:36 10° N
CSL-04 Debris 4.1 19:12:12 23° SSE 19:15:45 89° WSW 19:21:13 10° NNW
CZ-4B DEB 4.0 19:14:53 37° SSE 19:17:08 80° ENE 19:22:36 10° NNW
ERS-1 Rocket 3.1 19:20:01 55° NE 19:20:01 55° NE 19:24:32 10° N
USA 267 3.4 19:17:49 36° ENE 19:20:38 70° NNW 19:27:09 10° W
CSL-04 Rocket 3.7 19:17:14 20° S 19:20:57 77° WSW 19:26:17 10° NNW
ARIANE 6 FM1 Upper Stage 3.2 19:17:29 10° WNW 19:21:18 47° SW 19:21:31 47° SW
RESURS DK-1 3.3 19:22:04 10° NNW 19:24:45 39° NNW 19:24:45 39° NNW
Cosmos 2082 Rocket 4.4 19:26:07 10° NNW 19:28:48 13° N 19:30:22 12° NNE
Cosmos 2297 Rocket 3.4 19:26:32 10° WSW 19:31:50 39° NW 19:37:03 11° NNE
Cosmos 1943 3.0 19:27:28 10° NNW 19:33:13 81° ENE 19:33:43 73° ESE
SPOT 5 3.4 19:31:23 27° S 19:33:58 61° W 19:39:05 10° NNW
Okean O Rocket 3.5 19:39:03 20° N 19:39:03 20° N 19:40:35 10° N
Tsikada Rocket 3.8 19:30:21 10° S 19:36:29 83° E 19:42:43 10° NNE
MOS 1 4.2 19:38:45 67° SSE 19:39:35 88° ENE 19:45:19 10° NNW
Meteor 1-31 Rocket 4.3 19:40:27 31° WNW 19:40:27 31° WNW 19:43:03 10° NNW
Iridium 4 Rocket 4.3 19:41:08 10° N 19:44:03 36° N 19:44:03 36° N
Cosmos 2219 4.2 19:42:22 10° SSW 19:45:34 35° S 19:45:34 35° S
Cosmos 1603 4.1 19:43:26 10° NNW 19:48:05 51° NNE 19:48:05 51° NNE
ADEOS 3.6 19:53:50 74° W 19:53:50 74° W 19:58:52 10° NNW
Cosmos 2263 Rocket 2.3 19:52:14 10° SW 19:57:55 73° NW 19:58:28 67° NNW
Meteor 2-12 Rocket 4.4 20:04:14 78° NNW 20:04:14 78° NNW 20:10:01 10° N
Cosmos 1634 Rocket 4.5 20:00:24 10° NNW 20:06:36 58° W 20:09:11 34° SSW
Terra 3.1 20:10:00 37° NNW 20:10:00 37° NNW 20:12:55 10° NNW
Cosmos 1833 Rocket 4.3 20:12:06 10° NNW 20:15:10 25° N 20:15:10 25° N
Cosmos 2344 3.4 20:16:20 10° SW 20:23:51 79° NW 20:24:32 73° NNE
Cosmos 2279 Rocket 4.4 20:21:28 10° NNW 20:27:31 57° W 20:27:37 57° W
SL-16 R/B 4.4 20:25:52 10° NW 20:29:49 20° W 20:32:45 14° SW
Cosmos 2227 Rocket 3.6 20:26:18 10° WSW 20:31:24 34° NW 20:33:22 27° N
CZ-4C R/B 3.6 20:28:55 10° WNW 20:33:37 32° N 20:33:37 32° N
CZ-4 R/B 4.4 20:37:50 13° WNW 20:37:50 13° WNW 20:38:38 10° NW
ATLAS 2AS CENTAUR R/B 3.6 20:54:26 10° NW 20:59:11 42° NNW 20:59:11 42° NNW
USA 267 4.0 21:05:09 49° NW 21:05:09 49° NW 21:09:55 10° WNW
Cosmos 2082 Rocket 4.5 21:10:24 10° NNW 21:12:11 17° N 21:12:11 17° N
